Terminal Aerodrome Forecast
Issued by NWS

Home | Current Version | Previous Version | Text Only | Print | Product List | Glossary On
Versions: 1 2 3 4 5 6 7 8 9 10 11 12 13 14 15 16 17 18 19 20
000
FTUS43 KSGF 200500
TAFJLN
TAF
KJLN 200520Z 2006/2106 19007KT P6SM VCSH BKN070 OVC150
     FM201000 21006KT P6SM VCSH BKN050 OVC100
     FM201500 25006KT P6SM BKN050
     FM201900 33005KT P6SM SKC
     FM202300 VRB04KT P6SM SKC=

USA.gov is the U.S. government's official web portal to all federal, state and local government web resources and services.